Terminal Aerodrome Forecast
Issued by NWS

Home | Current Version | Previous Version | Text Only | Print | Product List | Glossary On
Versions: 1 2 3 4 5 6 7 8 9 10 11 12 13 14 15 16 17 18 19 20 21 22 23 24 25 26 27 28 29 30 31 32 33 34 35 36 37 38 39 40 41 42 43 44 45 46 47 48 49 50
000
FTUS41 KCTP 040535
TAFJST
TAF
KJST 040535Z 0406/0506 26006KT 3SM -TSRA BR SCT045CB BKN070 OVC110
      TEMPO 0406/0407 33012G28KT 1SM -TSRA BKN015CB OVC025
     FM040700 VRB04KT 5SM -RA BR OVC035
     FM041000 25005KT P6SM SCT005
     FM041300 27010KT P6SM SCT025
     FM041600 28010G20KT P6SM SCT050=

USA.gov is the U.S. government's official web portal to all federal, state and local government web resources and services.